| time (UTC) | temp C | wind direction | speed KPH | gust KPH | rain 1hr cm | rain 24hr cm | rain mn cm | humidity % | barometer mb |
| 20260507050020 | 6 | 360 | 0.0 | 0.0 | 0.00 | 0.89 | 0.00 | 96 | 1005.5 |
| 20260507044519 | 7 | 360 | 0.0 | 0.0 | 0.00 | 0.89 | 0.00 | 96 | 1005.6 |
| 20260507043018 | 7 | 360 | 0.0 | 0.0 | 0.00 | 0.89 | 0.00 | 96 | 1005.7 |
| 20260507041515 | 7 | 360 | 0.0 | 0.0 | 0.00 | 0.89 | 0.00 | 96 | 1005.9 |
| 20260507040009 | 7 | 360 | 0.0 | 0.0 | 0.03 | 0.89 | 0.00 | 96 | 1005.6 |
| 20260507034520 | 7 | 360 | 0.0 | 0.0 | 0.05 | 0.89 | 0.89 | 96 | 1005.5 |
| 20260507033006 | 7 | 360 | 0.0 | 0.0 | 0.05 | 0.89 | 0.89 | 96 | 1005.4 |
| 20260507031504 | 8 | 360 | 0.0 | 0.0 | 0.05 | 0.89 | 0.89 | 96 | 1005.3 |
| 20260507030005 | 8 | 360 | 0.0 | 0.0 | 0.05 | 0.86 | 0.86 | 96 | 1005.3 |
| 20260507024559 | 8 | 360 | 0.0 | 0.0 | 0.05 | 0.84 | 0.84 | 96 | 1005.1 |
| 20260507023056 | 9 | 360 | 0.0 | 0.0 | 0.05 | 0.84 | 0.84 | 96 | 1004.9 |
| 20260507021554 | 10 | 360 | 0.0 | 0.0 | 0.08 | 0.84 | 0.84 | 96 | 1004.8 |
| 20260507020052 | 10 | 360 | 0.0 | 0.0 | 0.05 | 0.81 | 0.81 | 96 | 1004.8 |
| 20260507014552 | 11 | 360 | 0.0 | 0.0 | 0.15 | 0.79 | 0.79 | 96 | 1004.8 |
| 20260507013056 | 11 | 360 | 0.0 | 0.0 | 0.18 | 0.79 | 0.79 | 96 | 1004.9 |
| 20260507011545 | 11 | 360 | 0.0 | 0.0 | 0.15 | 0.76 | 0.76 | 95 | 1004.8 |
| 20260507010053 | 12 | 360 | 0.0 | 0.0 | 0.15 | 0.76 | 0.76 | 94 | 1004.7 |
| 20260507004539 | 13 | 360 | 0.0 | 0.0 | 0.03 | 0.64 | 0.64 | 95 | 1004.3 |
| 20260507003038 | 13 | 163 | 0.0 | 0.0 | 0.03 | 0.61 | 0.61 | 95 | 1003.9 |
| 20260507001538 | 13 | 360 | 0.0 | 0.0 | 0.03 | 0.61 | 0.61 | 95 | 1003.8 |
| 20260507000036 | 13 | 360 | 0.0 | 0.0 | 0.03 | 0.61 | 0.61 | 94 | 1003.5 |
| 20260506234537 | 13 | 360 | 0.0 | 0.0 | 0.03 | 0.64 | 0.61 | 94 | 1003.5 |
| 20260506233053 | 14 | 360 | 0.0 | 0.0 | 0.00 | 0.61 | 0.58 | 93 | 1003.3 |
| 20260506231538 | 14 | 163 | 0.0 | 0.0 | 0.00 | 0.61 | 0.58 | 93 | 1003.2 |
| 20260506230033 | 14 | 360 | 0.0 | 0.0 | 0.00 | 0.61 | 0.58 | 92 | 1003.0 |
| 20260506224531 | 15 | 360 | 0.0 | 0.0 | 0.00 | 0.64 | 0.58 | 92 | 1003.4 |
| 20260506223030 | 15 | 360 | 0.0 | 0.0 | 0.00 | 0.64 | 0.58 | 92 | 1003.3 |
| 20260506221528 | 15 | 360 | 0.0 | 0.0 | 0.00 | 0.64 | 0.58 | 92 | 1003.7 |
| 20260506220030 | 15 | 360 | 0.0 | 0.0 | 0.00 | 0.64 | 0.58 | 92 | 1003.6 |
| 20260506214527 | 15 | 360 | 0.0 | 0.0 | 0.00 | 0.64 | 0.58 | 92 | 1003.7 |
| 20260506213027 | 15 | 150 | 0.0 | 0.0 | 0.00 | 0.64 | 0.58 | 92 | 1003.9 |
| 20260506211528 | 15 | 178 | 0.0 | 0.0 | 0.00 | 0.64 | 0.58 | 93 | 1003.7 |
| 20260506210033 | 15 | 360 | 0.0 | 0.0 | 0.05 | 0.64 | 0.58 | 93 | 1003.9 |
| 20260506204524 | 15 | 123 | 0.0 | 0.0 | 0.18 | 0.64 | 0.58 | 93 | 1003.9 |
| 20260506203022 | 15 | 103 | 0.0 | 0.0 | 0.23 | 0.64 | 0.58 | 93 | 1004.3 |
| 20260506201525 | 14 | 184 | 0.0 | 0.0 | 0.25 | 0.64 | 0.58 | 93 | 1004.4 |
| 20260506200034 | 14 | 360 | 0.0 | 0.0 | 0.20 | 0.56 | 0.51 | 92 | 1004.5 |
| 20260506194518 | 15 | 146 | 0.0 | 0.0 | 0.10 | 0.46 | 0.41 | 91 | 1004.5 |
| 20260506193016 | 14 | 360 | 0.0 | 0.0 | 0.08 | 0.41 | 0.36 | 92 | 1004.6 |
| 20260506191514 | 15 | 158 | 0.0 | 0.0 | 0.08 | 0.38 | 0.33 | 92 | 1004.8 |
| 20260506190014 | 15 | 360 | 0.0 | 0.0 | 0.10 | 0.36 | 0.30 | 92 | 1005.2 |
| 20260506184512 | 15 | 86 | 0.0 | 0.0 | 0.18 | 0.36 | 0.30 | 91 | 1005.3 |
| 20260506183011 | 15 | 360 | 0.0 | 0.0 | 0.20 | 0.33 | 0.28 | 91 | 1005.3 |
| 20260506181514 | 15 | 171 | 0.0 | 0.0 | 0.23 | 0.30 | 0.25 | 91 | 1005.8 |
| 20260506180015 | 15 | 122 | 0.0 | 0.0 | 0.18 | 0.23 | 0.18 | 89 | 1006.0 |
| 20260506174505 | 15 | 360 | 0.0 | 0.0 | 0.13 | 0.18 | 0.13 | 89 | 1006.1 |
| 20260506173005 | 15 | 107 | 0.0 | 0.0 | 0.08 | 0.13 | 0.08 | 87 | 1006.1 |
| 20260506171504 | 16 | 360 | 0.0 | 0.0 | 0.03 | 0.08 | 0.03 | 84 | 1006.0 |
| 20260506170002 | 17 | 165 | 0.0 | 0.0 | 0.00 | 0.05 | 0.00 | 82 | 1006.1 |
| 20260506164623 | 17 | 132 | 0.0 | 0.0 | 0.00 | 0.05 | 0.00 | 79 | 1006.2 |
| 20260506163107 | 17 | 110 | 0.0 | 0.0 | 0.00 | 0.05 | 0.00 | 78 | 1006.3 |
| 20260506161557 | 17 | 126 | 0.0 | 0.0 | 0.00 | 0.05 | 0.00 | 82 | 1006.7 |
| 20260506160107 | 16 | 141 | 0.0 | 0.0 | 0.00 | 0.05 | 0.00 | 81 | 1007.2 |
| 20260506154554 | 17 | 133 | 0.0 | 0.0 | 0.00 | 0.05 | 0.00 | 79 | 1007.7 |
| 20260506153052 | 16 | 173 | 0.0 | 0.0 | 0.00 | 0.05 | 0.00 | 80 | 1007.6 |
| 20260506151553 | 16 | 175 | 0.0 | 0.0 | 0.00 | 0.05 | 0.00 | 80 | 1007.8 |
| 20260506150052 | 16 | 134 | 0.0 | 0.0 | 0.00 | 0.05 | 0.00 | 81 | 1007.6 |
| 20260506144551 | 15 | 360 | 0.0 | 0.0 | 0.00 | 0.05 | 0.00 | 81 | 1007.6 |
| 20260506143051 | 15 | 360 | 0.0 | 0.0 | 0.00 | 0.05 | 0.00 | 81 | 1007.3 |
| 20260506141607 | 15 | 360 | 0.0 | 0.0 | 0.00 | 0.05 | 0.00 | 81 | 1007.3 |
| 20260506140050 | 15 | 360 | 0.0 | 0.0 | 0.00 | 0.05 | 0.00 | 82 | 1007.2 |
| 20260506134547 | 15 | 360 | 0.0 | 0.0 | 0.00 | 0.05 | 0.00 | 82 | 1007.6 |
| 20260506133047 | 15 | 146 | 0.0 | 0.0 | 0.00 | 0.05 | 0.00 | 82 | 1007.7 |
| 20260506131546 | 15 | 360 | 0.0 | 0.0 | 0.00 | 0.05 | 0.00 | 82 | 1007.6 |
| 20260506130045 | 15 | 360 | 0.0 | 0.0 | 0.00 | 0.05 | 0.00 | 82 | 1007.6 |
| 20260506124545 | 15 | 360 | 0.0 | 0.0 | 0.00 | 0.05 | 0.00 | 82 | 1007.6 |
| 20260506123046 | 15 | 163 | 0.0 | 0.0 | 0.00 | 0.05 | 0.00 | 81 | 1007.6 |
| 20260506121554 | 15 | 183 | 0.0 | 0.0 | 0.00 | 0.05 | 0.00 | 81 | 1007.7 |
| 20260506120108 | 14 | 360 | 0.0 | 0.0 | 0.00 | 0.05 | 0.00 | 82 | 1007.9 |
| 20260506114545 | 13 | 360 | 0.0 | 0.0 | 0.00 | 0.05 | 0.00 | 83 | 1007.7 |
| 20260506113042 | 13 | 360 | 0.0 | 0.0 | 0.00 | 0.05 | 0.00 | 83 | 1007.8 |
| 20260506111542 | 13 | 134 | 0.0 | 0.0 | 0.00 | 0.05 | 0.00 | 82 | 1007.7 |
| 20260506110041 | 13 | 167 | 0.0 | 0.0 | 0.00 | 0.05 | 0.00 | 81 | 1007.9 |
| 20260506104541 | 13 | 185 | 0.0 | 0.0 | 0.00 | 0.05 | 0.00 | 80 | 1008.2 |
| 20260506103038 | 13 | 360 | 0.0 | 0.0 | 0.00 | 0.05 | 0.00 | 81 | 1008.3 |
| 20260506101536 | 13 | 360 | 0.0 | 0.0 | 0.00 | 0.05 | 0.00 | 78 | 1007.8 |
| 20260506100034 | 14 | 126 | 0.0 | 0.0 | 0.00 | 0.05 | 0.00 | 76 | 1008.0 |
| 20260506094535 | 14 | 180 | 0.0 | 0.0 | 0.00 | 0.05 | 0.00 | 76 | 1007.7 |
| 20260506093042 | 14 | 360 | 0.0 | 0.0 | 0.00 | 0.05 | 0.00 | 76 | 1007.8 |
| 20260506091528 | 14 | 360 | 0.0 | 0.0 | 0.00 | 0.05 | 0.00 | 76 | 1007.8 |
| 20260506090027 | 15 | 360 | 0.0 | 0.0 | 0.00 | 0.05 | 0.00 | 75 | 1007.9 |
| 20260506084526 | 15 | 181 | 0.0 | 0.0 | 0.00 | 0.05 | 0.00 | 75 | 1008.0 |
| 20260506083023 | 15 | 181 | 0.0 | 0.0 | 0.00 | 0.05 | 0.00 | 74 | 1008.0 |
| 20260506081521 | 15 | 360 | 0.0 | 0.0 | 0.00 | 0.05 | 0.00 | 74 | 1008.0 |
| 20260506073018 | 15 | 360 | 0.0 | 0.0 | 0.00 | 0.05 | 0.00 | 72 | 1007.7 |
| 20260506071513 | 15 | 360 | 0.0 | 0.0 | 0.00 | 0.05 | 0.00 | 72 | 1007.8 |
| 20260506061603 | 16 | 360 | 0.0 | 0.0 | 0.00 | 0.05 | 0.00 | 69 | 1007.6 |